Amateur Radio Satellites - All Passes

Search period start: 21 May 2013 19:32
Search period end: 22 May 2013 19:32
Location: Thompson, 55.7500°N, 97.8670°W

Satellite Date Start Highest point End Downlink Frequencies (MHz)
Time Altitude Azimuth
JAS-2 21 May 19:46:26 19:52:09 23° 42° (NE) 19:57:44 435.800 - 435.900 CW/SSB, 435.910 FM
STRAND 1 21 May 19:59:03 20:04:09 58° 102° (ESE) 20:09:13 ?
UOSAT-12 21 May 20:06:28 20:11:06 82° 40° (NE) 20:15:43 437.025 FM, 437.400 FM
HO-68 21 May 20:32:04 20:38:41 43° 54° (NE) 20:45:20 435.675 MHz FM
OPAL 21 May 20:54:54 20:58:47 22° 48° (NE) 21:02:40 ?
SO-67 21 May 20:57:45 21:00:59 31° 264° (W) 21:04:14 435.3500 MHz FM
JAS-1B 21 May 21:02:50 21:11:32 52° 261° (W) 21:18:55 435.800 - 435.900 CW/SSB
Hamsat 21 May 21:10:54 21:13:09 14° 275° (W) 21:15:25 145.90 MHz
Oscar 11 21 May 21:27:24 21:31:22 36° 64° (ENE) 21:35:22 145.825 FM, Beacon 2401.500 USB
JAS-2 21 May 21:28:12 21:35:52 60° 64° (ENE) 21:43:26 435.800 - 435.900 CW/SSB, 435.910 FM
RS-15 21 May 21:35:14 21:46:43 56° 350° (N) 21:57:41 29.354 - 29.394 USB, Beacon 29.352 USB
STRAND 1 21 May 21:38:39 21:43:09 31° 302° (WNW) 21:47:38 ?
UOSAT-12 21 May 21:47:10 21:50:51 24° 241° (WSW) 21:54:31 437.025 FM, 437.400 FM
HO-68 21 May 22:19:12 22:26:15 61° 257° (WSW) 22:33:21 435.675 MHz FM
OPAL 21 May 22:31:55 22:37:07 87° 69° (ENE) 22:42:18 ?
KITSAT 1 21 May 22:49:53 22:54:57 18° 101° (E) 23:00:02 435.175 FM
JAS-1B 21 May 22:59:36 23:03:45 14° 282° (WNW) 23:07:39 435.800 - 435.900 CW/SSB
Oscar 11 21 May 23:03:39 23:07:39 36° 264° (W) 23:11:41 145.825 FM, Beacon 2401.500 USB
JAS-2 21 May 23:13:38 23:21:06 46° 265° (W) 23:28:33 435.800 - 435.900 CW/SSB, 435.910 FM
RS-15 21 May 23:49:45 00:01:09 63° 22° (NNE) 00:12:03 29.354 - 29.394 USB, Beacon 29.352 USB
HO-68 22 May 00:11:33 00:15:33 15° 279° (W) 00:19:33 435.675 MHz FM
OPAL 22 May 00:12:57 00:16:41 20° 269° (W) 00:20:25 ?
KITSAT 1 22 May 00:40:54 00:48:48 62° 124° (SE) 00:56:46 435.175 FM
JAS-2 22 May 01:05:07 01:08:09 12° 288° (WNW) 01:11:11 435.800 - 435.900 CW/SSB, 435.910 FM
AO-40 22 May 01:31:04 03:26:49 28° 204° (SSW) 08:12:59 Beacon 2401.320
MaSat-1 22 May 01:41:46 01:45:21 15° 104° (ESE) 01:48:36 437.345 MHz
Oscar 19 22 May 01:52:57 01:54:55 12° 81° (E) 01:56:53 437.125 CW, 437.150 USB
RS-15 22 May 02:02:52 02:14:04 73° 232° (SW) 02:24:52 29.354 - 29.394 USB, Beacon 29.352 USB
Oscar 16 22 May 02:30:33 02:34:54 26° 91° (E) 02:39:12 437.025 USB, Beacon 2401.1428
KITSAT 1 22 May 02:36:26 02:44:26 59° 329° (NNW) 02:52:29 435.175 FM
AO-27 22 May 02:37:30 02:41:38 23° 90° (E) 02:45:44 436.795 MHz FM
ITAMSAT 1 22 May 02:44:17 02:48:36 25° 91° (E) 02:52:53 435.822 SSB
MaSat-1 22 May 03:20:18 03:26:52 60° 121° (ESE) 03:32:05 437.345 MHz
Uribyol 2 22 May 03:25:12 03:30:19 50° 100° (E) 03:35:24 436.500 FM
Oscar 19 22 May 03:30:14 03:35:25 61° 102° (ESE) 03:40:31 437.125 CW, 437.150 USB
Uosat F 22 May 03:34:27 03:36:38 13° 83° (E) 03:38:48 435.120 FM
AO-Echo 22 May 03:41:07 03:45:08 27° 93° (E) 03:49:11 ?
Oscar 16 22 May 04:09:33 04:14:43 65° 292° (WNW) 04:19:50 437.025 USB, Beacon 2401.1428
STRAND 1 22 May 04:10:35 04:11:03 10° 38° (NE) 04:11:31 ?
TMSAT-1 22 May 04:15:34 04:19:06 18° 85° (E) 04:22:37 436.925 FM
RS-15 22 May 04:16:05 04:24:26 26° 258° (WSW) 04:32:38 29.354 - 29.394 USB, Beacon 29.352 USB
AO-27 22 May 04:16:30 04:21:44 75° 290° (WNW) 04:26:57 436.795 MHz FM
ITAMSAT 1 22 May 04:23:23 04:28:36 68° 291° (WNW) 04:33:47 435.822 SSB
KITSAT 1 22 May 04:33:48 04:41:24 41° 357° (N) 04:49:01 435.175 FM
Gurwin Techsat 1B 22 May 04:36:12 04:41:00 33° 94° (E) 04:45:46 435.225 FM
ISS 22 May 04:44:12 04:46:28 17° 150° (SSE) 04:48:44 145.800 FM
MaSat-1 22 May 05:03:14 05:09:13 43° 318° (NW) 05:13:59 437.345 MHz
Uribyol 2 22 May 05:04:58 05:09:43 36° 300° (WNW) 05:14:27 436.500 FM
AO-7 22 May 05:06:34 05:12:42 22° 85° (E) 05:18:48 29.400 - 29.500 MHz
Oscar 19 22 May 05:10:02 05:14:31 30° 303° (WNW) 05:18:58 437.125 CW, 437.150 USB
Uosat F 22 May 05:11:26 05:16:28 66° 104° (ESE) 05:21:28 435.120 FM
AO-Echo 22 May 05:19:39 05:24:16 55° 293° (WNW) 05:28:56 ?
STRAND 1 22 May 05:44:20 05:48:57 36° 60° (ENE) 05:53:35 ?
Oscar 16 22 May 05:50:01 05:53:15 17° 313° (NW) 05:56:27 437.025 USB, Beacon 2401.1428
TMSAT-1 22 May 05:54:31 05:59:53 85° 106° (ESE) 06:05:12 436.925 FM
AO-27 22 May 05:56:58 06:00:32 19° 311° (NW) 06:04:06 436.795 MHz FM
Saudisat 1A 22 May 06:02:32 06:04:34 13° 111° (ESE) 06:06:35 436.775 MHz
ITAMSAT 1 22 May 06:03:56 06:07:19 18° 313° (NW) 06:10:41 435.822 SSB
Gurwin Techsat 1B 22 May 06:16:04 06:21:15 53° 295° (WNW) 06:26:25 435.225 FM
ISS 22 May 06:19:29 06:22:36 36° 169° (S) 06:25:43 145.800 FM
KITSAT 1 22 May 06:30:34 06:38:31 52° 25° (NNE) 06:46:26 435.175 FM
Uribyol 2 22 May 06:46:56 06:47:53 11° 322° (NW) 06:48:50 436.500 FM
MaSat-1 22 May 06:48:33 06:52:27 19° 340° (NNW) 06:55:47 437.345 MHz
Uosat F 22 May 06:50:45 06:54:58 28° 304° (NW) 06:59:10 435.120 FM
AO-7 22 May 06:58:38 07:07:02 73° 108° (ESE) 07:15:24 29.400 - 29.500 MHz
AO-Echo 22 May 07:00:03 07:02:11 13° 314° (NW) 07:04:20 ?
Hamsat 22 May 07:13:03 07:14:33 12° 83° (E) 07:16:02 145.90 MHz
STRAND 1 22 May 07:23:08 07:28:04 49° 260° (W) 07:33:03 ?
TMSAT-1 22 May 07:35:09 07:39:18 24° 307° (NW) 07:43:26 436.925 FM
Saudisat 1A 22 May 07:38:53 07:43:24 59° 131° (SE) 07:47:57 436.775 MHz
Sapphire 22 May 07:40:13 07:43:33 17° 106° (ESE) 07:46:54 437.095 MHz 1200 baud AX-25 AFSK
ISS 22 May 07:55:49 07:58:57 37° 189° (S) 08:02:05 145.800 FM
Gurwin Techsat 1B 22 May 07:57:23 08:00:13 15° 316° (NW) 08:03:02 435.225 FM
SO-67 22 May 08:17:45 08:19:50 15° 88° (E) 08:21:54 435.3500 MHz FM
KITSAT 1 22 May 08:26:21 08:34:29 76° 231° (SW) 08:42:35 435.175 FM
Oscar 10/S400 22 May 08:27:14 11:34:52 35° 249° (WSW) 17:49:22 145.825 - 145.975 CW/USB, Beacon 145.810 USB
MaSat-1 22 May 08:33:29 08:36:19 15° 6° (N) 08:38:47 437.345 MHz
JAS-1B 22 May 08:40:28 08:46:08 32° 91° (E) 08:51:16 435.800 - 435.900 CW/SSB
Hamsat 22 May 08:47:06 08:51:28 70° 103° (ESE) 08:55:49 145.90 MHz
PCSat 22 May 08:48:04 08:53:14 47° 121° (ESE) 08:58:26 145.825 MHz
AO-7 22 May 08:51:49 08:59:28 42° 312° (NW) 09:07:07 29.400 - 29.500 MHz
SO-50 22 May 09:02:26 09:04:54 14° 112° (ESE) 09:07:21 436.795 FM
Saudisat 1A 22 May 09:18:54 09:23:19 44° 333° (NNW) 09:27:46 436.775 MHz
Sapphire 22 May 09:20:43 09:26:07 71° 127° (SE) 09:31:32 437.095 MHz 1200 baud AX-25 AFSK
ISS 22 May 09:32:43 09:35:06 18° 209° (SSW) 09:37:29 145.800 FM
HO-68 22 May 09:39:09 09:44:09 20° 84° (E) 09:49:08 435.675 MHz FM
SO-67 22 May 09:50:09 09:53:44 68° 288° (WNW) 09:57:18 435.3500 MHz FM
JAS-2 22 May 10:15:44 10:21:45 28° 85° (E) 10:27:11 435.800 - 435.900 CW/SSB, 435.910 FM
MaSat-1 22 May 10:16:06 10:19:54 29° 33° (NNE) 10:22:57 437.345 MHz
KITSAT 1 22 May 10:22:33 10:28:43 25° 254° (WSW) 10:34:54 435.175 FM
Hamsat 22 May 10:23:53 10:27:10 21° 303° (WNW) 10:30:27 145.90 MHz
JAS-1B 22 May 10:30:59 10:37:23 59° 296° (WNW) 10:43:03 435.800 - 435.900 CW/SSB
PCSat 22 May 10:31:24 10:36:43 52° 323° (NW) 10:42:03 145.825 MHz
OPAL 22 May 10:36:30 10:38:19 12° 85° (E) 10:40:08 ?
SO-50 22 May 10:40:01 10:44:44 63° 132° (SE) 10:49:23 436.795 FM
Oscar 11 22 May 10:43:56 10:47:37 26° 93° (E) 10:51:17 145.825 FM, Beacon 2401.500 USB
AO-7 22 May 10:44:48 10:50:17 20° 337° (NNW) 10:55:47 29.400 - 29.500 MHz
Saudisat 1A 22 May 11:00:01 11:04:00 27° 357° (N) 11:07:58 436.775 MHz
Sapphire 22 May 11:04:51 11:09:57 40° 331° (NNW) 11:15:05 437.095 MHz 1200 baud AX-25 AFSK
SO-67 22 May 11:25:38 11:26:32 11° 307° (NW) 11:27:27 435.3500 MHz FM
HO-68 22 May 11:25:57 11:33:09 74° 107° (ESE) 11:40:19 435.675 MHz FM
Oscar 19 22 May 11:41:46 11:42:52 11° 39° (NE) 11:43:58 437.125 CW, 437.150 USB
MaSat-1 22 May 11:58:25 12:02:13 47° 242° (WSW) 12:05:12 437.345 MHz
JAS-2 22 May 12:00:22 12:07:44 82° 290° (WNW) 12:14:12 435.800 - 435.900 CW/SSB, 435.910 FM
UOSAT-12 22 May 12:06:12 12:09:13 18° 115° (ESE) 12:12:16 437.025 FM, 437.400 FM
OPAL 22 May 12:13:17 12:18:19 62° 105° (ESE) 12:23:15 ?
PCSat 22 May 12:16:41 12:21:17 27° 348° (NNW) 12:25:54 145.825 MHz
Oscar 16 22 May 12:17:54 12:21:27 19° 49° (NE) 12:25:00 437.025 USB, Beacon 2401.1428
Oscar 11 22 May 12:19:52 12:24:07 51° 292° (WNW) 12:28:21 145.825 FM, Beacon 2401.500 USB
SO-50 22 May 12:21:05 12:25:37 43° 334° (NNW) 12:30:04 436.795 FM
JAS-1B 22 May 12:22:29 12:26:42 18° 323° (NW) 12:30:37 435.800 - 435.900 CW/SSB
AO-27 22 May 12:26:06 12:29:27 18° 47° (NE) 12:32:49 436.795 MHz FM
ITAMSAT 1 22 May 12:32:37 12:36:09 19° 49° (NE) 12:39:42 435.822 SSB
AO-7 22 May 12:35:46 12:40:09 16° 4° (N) 12:44:33 29.400 - 29.500 MHz
Saudisat 1A 22 May 12:40:29 12:44:46 36° 21° (NNE) 12:49:00 436.775 MHz
Sapphire 22 May 12:50:16 12:54:45 25° 356° (N) 12:59:14 437.095 MHz 1200 baud AX-25 AFSK
Uribyol 2 22 May 13:12:18 13:16:53 33° 58° (ENE) 13:21:30 436.500 FM
HO-68 22 May 13:14:04 13:20:27 37° 309° (NW) 13:26:50 435.675 MHz FM
Oscar 19 22 May 13:16:11 13:20:55 37° 60° (ENE) 13:25:41 437.125 CW, 437.150 USB
Uosat F 22 May 13:20:14 13:21:17 11° 39° (NE) 13:22:19 435.120 FM
AO-Echo 22 May 13:25:14 13:28:14 17° 50° (NE) 13:31:12 ?
UOSAT-12 22 May 13:44:13 13:48:45 79° 136° (SE) 13:53:21 437.025 FM, 437.400 FM
JAS-2 22 May 13:45:54 13:51:49 27° 314° (NW) 13:57:15 435.800 - 435.900 CW/SSB, 435.910 FM
OPAL 22 May 13:52:36 13:56:57 30° 306° (NW) 14:01:15 ?
Oscar 16 22 May 13:54:53 14:00:05 75° 70° (ENE) 14:05:19 437.025 USB, Beacon 2401.1428
Oscar 11 22 May 13:58:03 13:59:27 11° 313° (NW) 14:00:51 145.825 FM, Beacon 2401.500 USB
PCSat 22 May 14:01:38 14:06:17 28° 14° (NNE) 14:10:57 145.825 MHz
AO-27 22 May 14:03:02 14:08:11 69° 69° (ENE) 14:13:22 436.795 MHz FM
SO-50 22 May 14:03:11 14:07:14 28° 358° (N) 14:11:13 436.795 FM
TMSAT-1 22 May 14:06:58 14:09:43 15° 44° (NE) 14:12:30 436.925 FM
ITAMSAT 1 22 May 14:09:46 14:14:56 75° 70° (ENE) 14:20:09 435.822 SSB
Saudisat 1A 22 May 14:20:18 14:24:56 84° 223° (SW) 14:29:28 436.775 MHz
AO-7 22 May 14:24:00 14:30:13 24° 32° (NNE) 14:36:28 29.400 - 29.500 MHz
Gurwin Techsat 1B 22 May 14:26:41 14:30:49 24° 53° (NE) 14:34:58 435.225 FM
Sapphire 22 May 14:34:50 14:39:42 32° 21° (NNE) 14:44:34 437.095 MHz 1200 baud AX-25 AFSK
Uribyol 2 22 May 14:51:06 14:56:12 56° 259° (W) 15:01:21 436.500 FM
Uosat F 22 May 14:54:15 14:58:52 38° 61° (ENE) 15:03:29 435.120 FM
Oscar 19 22 May 14:55:12 15:00:14 48° 261° (W) 15:05:17 437.125 CW, 437.150 USB
AO-Echo 22 May 15:01:34 15:06:22 75° 71° (ENE) 15:11:06 ?
HO-68 22 May 15:02:33 15:06:19 15° 334° (NNW) 15:10:05 435.675 MHz FM
UOSAT-12 22 May 15:25:06 15:29:21 37° 338° (NNW) 15:33:37 437.025 FM, 437.400 FM
JAS-2 22 May 15:32:05 15:34:31 12° 338° (NNW) 15:36:53 435.800 - 435.900 CW/SSB, 435.910 FM
Oscar 16 22 May 15:35:58 15:40:02 23° 271° (W) 15:44:08 437.025 USB, Beacon 2401.1428
TMSAT-1 22 May 15:43:30 15:48:38 53° 65° (ENE) 15:53:47 436.925 FM
AO-27 22 May 15:44:00 15:48:13 25° 269° (W) 15:52:28 436.795 MHz FM
SO-50 22 May 15:44:34 15:48:56 38° 22° (NNE) 15:53:11 436.795 FM
PCSat 22 May 15:45:24 15:50:48 56° 38° (NE) 15:56:09 145.825 MHz
ITAMSAT 1 22 May 15:50:59 15:55:02 23° 271° (W) 15:59:06 435.822 SSB
Saudisat 1A 22 May 16:00:50 16:04:03 19° 244° (WSW) 16:07:13 436.775 MHz
Gurwin Techsat 1B 22 May 16:04:57 16:10:17 85° 254° (WSW) 16:15:39 435.225 FM
AO-7 22 May 16:13:29 16:21:31 58° 56° (ENE) 16:29:38 29.400 - 29.500 MHz
Sapphire 22 May 16:18:26 16:23:55 78° 45° (NE) 16:29:22 437.095 MHz 1200 baud AX-25 AFSK
Uosat F 22 May 16:32:54 16:37:40 44° 261° (W) 16:42:29 435.120 FM
Uribyol 2 22 May 16:35:36 16:36:55 11° 280° (W) 16:38:14 436.500 FM
RS-15 22 May 16:35:44 16:45:49 34° 108° (ESE) 16:55:30 29.354 - 29.394 USB, Beacon 29.352 USB
AO-Echo 22 May 16:42:13 16:45:44 20° 271° (W) 16:49:14 ?
HO-68 22 May 16:50:47 16:51:13 10° 360° (N) 16:51:38 435.675 MHz FM
UOSAT-12 22 May 17:06:38 17:10:35 27° 2° (N) 17:14:32 437.025 FM, 437.400 FM
TMSAT-1 22 May 17:24:04 17:28:50 33° 266° (W) 17:33:38 436.925 FM
SO-50 22 May 17:25:19 17:29:57 76° 225° (SW) 17:34:27 436.795 FM
PCSat 22 May 17:29:04 17:34:10 42° 241° (WSW) 17:39:15 145.825 MHz
JAS-1B 22 May 17:44:12 17:50:15 23° 44° (NE) 17:55:37 435.800 - 435.900 CW/SSB
Gurwin Techsat 1B 22 May 17:47:35 17:51:06 18° 275° (W) 17:54:39 435.225 FM
Sapphire 22 May 18:02:23 18:06:55 28° 247° (WSW) 18:11:26 437.095 MHz 1200 baud AX-25 AFSK
AO-7 22 May 18:06:33 18:14:33 50° 260° (W) 18:22:39 29.400 - 29.500 MHz
Hamsat 22 May 18:13:46 18:17:03 22° 58° (ENE) 18:20:21 145.90 MHz
HO-68 22 May 18:32:21 18:36:07 15° 26° (NNE) 18:39:52 435.675 MHz FM
RS-15 22 May 18:44:58 18:56:54 84° 134° (SE) 19:08:17 29.354 - 29.394 USB, Beacon 29.352 USB
UOSAT-12 22 May 18:47:20 18:51:44 42° 26° (NNE) 18:56:08 437.025 FM, 437.400 FM
JAS-2 22 May 18:54:34 18:58:28 15° 29° (NNE) 19:02:17 435.800 - 435.900 CW/SSB, 435.910 FM
SO-67 22 May 19:00:53 19:03:28 19° 60° (ENE) 19:06:03 435.3500 MHz FM
SO-50 22 May 19:06:58 19:09:53 17° 246° (WSW) 19:12:45 436.795 FM

Developed and maintained by Chris Peat, Heavens-Above GmbH. Please read the updated FAQ before sending e-mail. Imprint. DLR
